[[{"header":{"parameterUnit":"m.s-1","parameterCategory":2,"la1":30.2991,"la2":30.254,"lo1":-89.0895,"lo2":-89.0444,"dy":0.0017,"dx":0.0017,"nx":28,"ny":28,"refTime":"2026-01-03T03:00:00:Z","depth":"0","parameterNumber":2,"parameterNumberName":"U-component_of_CURRENTS"},"data":[0,0,0,0,0,0,0,0,0,0,0,0,0,0,0,0,0,0,0,0,0,0,0,0,0,0,0,0,0,0,0,0,0,0,0,0,0,0,0,0,0,0,0,0,0,0,0,0,0,0,0,0,0,0,0,0,0,0,-0.247,-0.247,0,-0.2499,-0.25,-0.25,-0.2483,-0.2482,-0.2481,-0.248,-0.2466,-0.2466,-0.2467,0,0,0,0,0,0,0,0,0,0,0,0,0,-0.2332,-0.2335,-0.247,-0.247,-0.247,-0.2499,-0.25,-0.25,-0.2483,-0.2482,-0.2481,-0.248,-0.2466,-0.2466,-0.2467,0,0,0,0,0,0,0,0,0,0,0,0,0,-0.238,-0.2336,-0.247,-0.2465,-0.2465,-0.2499,-0.25,-0.25,-0.2483,-0.2482,-0.2481,-0.2479,-0.2466,-0.2466,-0.2467,-0.2496,0,0,-0.2469,-0.2469,0,0,0,0,0,0,0,0,-0.2378,-0.2386,-0.2465,-0.2465,-0.2465,-0.2486,-0.2446,-0.2497,-0.2484,-0.2477,-0.248,-0.2479,-0.2469,-0.247,-0.2479,-0.2496,-0.2495,-0.2469,-0.2469,-0.2469,-0.247,0,0,0,0,0,0,0,-0.2375,-0.2384,-0.2482,-0.2466,-0.2466,-0.2439,-0.2445,-0.2455,-0.2479,-0.2477,-0.2476,-0.2479,-0.2469,-0.2478,-0.2478,-0.2495,-0.2469,-0.2469,-0.247,-0.247,-0.249,-0.249,0,0,0,0,0,0,-0.2376,-0.2382,-0.2481,-0.2483,-0.2417,-0.2443,-0.2449,-0.2481,-0.248,-0.2479,-0.248,-0.2478,-0.2478,-0.2478,-0.2478,-0.2444,-0.2469,-0.247,-0.247,-0.249,-0.249,-0.249,0,0,0,0,0,0,-0.2374,-0.2386,-0.248,-0.243,-0.244,-0.2447,-0.2482,-0.2482,-0.2486,-0.2483,-0.2481,-0.2483,-0.2477,-0.2477,-0.2477,-0.2446,-0.247,-0.2471,-0.249,-0.249,-0.249,-0.2421,0,0,0,0,0,0,-0.237,-0.2386,-0.2405,-0.2432,-0.2443,-0.2487,-0.2483,-0.2484,-0.249,-0.2488,-0.2485,-0.2483,-0.2476,-0.2476,-0.2478,-0.2447,-0.2471,-0.249,-0.249,-0.249,-0.2423,-0.2419,-0.2415,0,0,0,0,0,-0.2365,-0.2386,-0.2406,-0.2417,-0.2472,-0.2487,-0.249,-0.2489,-0.2492,-0.249,-0.249,-0.2482,-0.2479,-0.2477,-0.2479,-0.2447,-0.249,-0.249,-0.249,-0.2425,-0.242,-0.2415,0,0,0,0,0,0,-0.2329,-0.2388,-0.2409,-0.2447,-0.2464,-0.2484,-0.248,-0.2493,-0.2496,-0.249,-0.249,-0.2488,-0.2471,-0.2486,-0.2484,-0.2459,-0.2481,-0.2482,-0.2431,-0.2426,-0.2423,-0.2422,-0.2472,0,0,0,0,0,-0.2336,-0.2369,-0.2413,-0.2438,-0.2449,-0.2471,-0.2477,-0.2482,-0.249,-0.249,-0.2488,-0.2488,-0.2478,-0.2473,-0.2471,-0.2468,-0.2476,-0.2451,-0.2447,-0.2443,-0.2447,-0.2438,-0.2433,-0.2492,-0.2492,-0.2492,0,0,-0.2324,-0.2363,-0.2378,-0.2432,-0.2444,-0.2447,-0.247,-0.2477,-0.2469,-0.2489,-0.2471,-0.2474,-0.2477,-0.2456,-0.2451,-0.2461,-0.243,-0.2444,-0.244,-0.2446,-0.2438,-0.2432,-0.2427,-0.2492,-0.2492,-0.2492,0,0,-0.2294,-0.2356,-0.236,-0.238,-0.2407,-0.2426,-0.243,-0.2454,-0.2452,-0.2451,-0.2451,-0.2442,-0.2442,-0.2426,-0.2421,-0.2405,-0.2408,-0.2406,-0.2381,-0.2371,-0.2366,-0.2361,-0.235,-0.2345,-0.2404,-0.2404,-0.2404,0,-0.227,-0.2304,-0.2357,-0.2359,-0.2371,-0.2415,-0.2409,-0.2416,-0.2431,-0.2435,-0.2432,-0.2429,-0.242,-0.2397,-0.238,-0.2389,-0.2394,-0.2389,-0.2363,-0.2359,-0.2355,-0.2345,-0.2341,-0.24,-0.2401,-0.2401,-0.2401,0,-0.2235,-0.2264,-0.2264,-0.2294,-0.2311,-0.2316,-0.2344,-0.2354,-0.2367,-0.2376,-0.2367,-0.2363,-0.2364,-0.235,-0.2353,-0.2325,-0.2339,-0.2354,-0.2367,-0.2344,-0.2336,-0.2332,-0.2396,-0.2397,-0.2398,-0.2399,0,0,-0.2171,-0.2231,-0.2227,-0.2243,-0.2285,-0.2295,-0.2294,-0.2314,-0.2318,-0.2319,-0.2316,-0.2287,-0.2306,-0.2304,-0.2308,-0.2292,-0.2251,-0.231,-0.2311,-0.2285,-0.2232,-0.218,-0.2171,-0.2262,-0.2261,-0.2261,-0.2231,0,-0.2122,-0.2127,-0.2169,-0.2166,-0.2177,-0.2231,-0.2231,-0.2254,-0.2275,-0.2283,-0.2284,-0.2279,-0.2282,-0.2281,-0.2265,-0.2268,-0.2242,-0.2258,-0.2272,-0.2272,-0.2216,-0.2164,-0.2054,-0.2013,-0.2228,-0.2227,-0.2227,0,-0.2062,-0.2086,-0.2082,-0.2136,-0.2144,-0.2144,-0.2184,-0.2191,-0.2222,-0.2239,-0.2248,-0.2265,-0.225,-0.2253,-0.2233,-0.2248,-0.2231,-0.2224,-0.2223,-0.2198,-0.2212,-0.2075,-0.1999,-0.1978,-0.2221,-0.2222,-0.2222,0,-0.1991,-0.2022,-0.2027,-0.2041,-0.2099,-0.2104,-0.2131,-0.217,-0.2185,-0.2214,-0.223,-0.2234,-0.2235,-0.2222,-0.222,-0.2225,-0.2201,-0.2206,-0.2137,-0.2134,-0.2055,-0.2045,-0.1946,-0.217,-0.217,-0.217,-0.217,0,-0.1933,-0.1931,-0.1995,-0.1996,-0.2,-0.2057,-0.2064,-0.2097,-0.2141,-0.215,-0.2201,-0.2206,-0.2227,-0.2229,-0.2216,-0.2168,-0.2196,-0.2118,-0.2115,-0.2027,-0.2016,-0.201,-0.2037,-0.2169,-0.2169,-0.2169,-0.217,0,-0.1844,-0.1889,-0.1896,-0.1952,-0.1966,-0.1965,-0.2022,-0.2028,-0.2089,-0.2104,-0.2113,-0.2177,-0.2175,-0.2195,-0.2179,-0.2152,-0.2073,-0.2093,-0.199,-0.1973,-0.1866,-0.1895,-0.1822,-0.1771,-0.1992,-0.199,-0.1989,0,-0.1798,-0.1794,-0.1844,-0.1845,-0.1865,-0.1884,-0.1895,-0.1976,-0.1992,-0.2075,-0.207,-0.2104,-0.2099,-0.2081,-0.2043,-0.2003,-0.2004,-0.1876,-0.1847,-0.1825,-0.1856,-0.1881,-0.1845,-0.1714,-0.1711,-0.1708,-0.1706,0,-0.1707,-0.1725,-0.1736,-0.1742,-0.1751,-0.1768,-0.1797,-0.1813,-0.1901,-0.1928,-0.1961,-0.1972,-0.1973,-0.1892,-0.1863,-0.1824,-0.1813,-0.1813,-0.1811,-0.1637,-0.1638,-0.1599,-0.1785,-0.168,-0.1683,-0.1685,-0.1686,-0.1687,-0.1627,-0.1612,-0.1629,-0.1622,-0.1634,-0.1635,-0.1616,-0.1667,-0.1686,-0.1713,-0.1799,-0.179,-0.1763,-0.17,-0.1665,-0.1558,-0.1626,-0.1494,-0.1533,-0.1562,-0.1493,-0.1622,-0.1507,-0.1508,-0.1509,-0.151,-0.1511,0,-0.1519,-0.1516,-0.1507,-0.1501,-0.1468,-0.1515,-0.153,-0.1501,-0.1485,-0.1542,-0.1556,-0.1556,-0.1467,-0.1459,-0.1372,-0.1303,-0.1274,-0.1275,-0.1278,-0.1256,-0.1367,-0.1333,-0.115,-0.115,-0.115,-0.115,-0.115,-0.115,-0.1464,-0.1419,-0.1416,-0.1333,-0.1324,-0.1255,-0.124,-0.1222,-0.124,-0.1232,-0.1261,-0.1329,-0.1352,-0.1381,-0.1261,-0.1186,-0.1165,-0.1115,-0.1169,-0.125,-0.1273,-0.1296,-0.1268,-0.1074,-0.1074,-0.0982,-0.0982,-0.0981]},{"header":{"parameterUnit":"m.s-1","parameterCategory":2,"la1":30.2991,"la2":30.254,"lo1":-89.0895,"lo2":-89.0444,"dy":0.0017,"dx":0.0017,"nx":28,"ny":28,"refTime":"2026-01-03T03:00:00:Z","depth":"0","parameterNumber":3,"parameterNumberName":"V-component_of_CURRENTS"},"data":[0,0,0,0,0,0,0,0,0,0,0,0,0,0,0,0,0,0,0,0,0,0,0,0,0,0,0,0,0,0,0,0,0,0,0,0,0,0,0,0,0,0,0,0,0,0,0,0,0,0,0,0,0,0,0,0,0,0,-0.0554,-0.0553,0,-0.0497,-0.0496,-0.0495,-0.0472,-0.0472,-0.0472,-0.0472,-0.0346,-0.0343,-0.034,0,0,0,0,0,0,0,0,0,0,0,0,0,-0.0543,-0.0544,-0.0554,-0.0553,-0.0552,-0.0497,-0.0496,-0.0495,-0.0472,-0.0472,-0.0472,-0.0472,-0.0347,-0.0343,-0.0339,0,0,0,0,0,0,0,0,0,0,0,0,0,-0.0524,-0.0544,-0.0554,-0.0534,-0.0531,-0.0497,-0.0496,-0.0495,-0.0472,-0.0472,-0.0472,-0.0472,-0.0349,-0.0344,-0.0339,-0.0305,0,0,-0.0323,-0.0321,0,0,0,0,0,0,0,0,-0.0525,-0.0524,-0.0537,-0.0535,-0.0532,-0.0491,-0.0446,-0.0428,-0.0472,-0.0495,-0.0472,-0.0472,-0.0388,-0.038,-0.037,-0.0299,-0.0293,-0.0323,-0.0319,-0.0317,-0.0316,0,0,0,0,0,0,0,-0.0527,-0.0526,-0.0532,-0.0537,-0.0533,-0.0493,-0.0491,-0.0442,-0.0441,-0.0493,-0.0491,-0.0484,-0.0386,-0.0375,-0.0367,-0.0292,-0.0323,-0.0318,-0.0315,-0.0313,-0.0185,-0.0185,0,0,0,0,0,0,-0.0538,-0.0528,-0.0534,-0.053,-0.0528,-0.0494,-0.0492,-0.0505,-0.0443,-0.0434,-0.0484,-0.0483,-0.0384,-0.0373,-0.0362,-0.0316,-0.0317,-0.0313,-0.031,-0.0185,-0.0185,-0.0184,0,0,0,0,0,0,-0.0538,-0.054,-0.0536,-0.0526,-0.0522,-0.0494,-0.0508,-0.0503,-0.0494,-0.0436,-0.0426,-0.048,-0.0384,-0.037,-0.0323,-0.0311,-0.031,-0.0306,-0.0186,-0.0185,-0.0185,-0.0225,0,0,0,0,0,0,-0.0539,-0.0541,-0.0551,-0.0528,-0.0523,-0.0516,-0.0508,-0.0502,-0.0489,-0.0488,-0.0429,-0.0418,-0.0383,-0.0331,-0.0318,-0.0304,-0.0302,-0.0186,-0.0185,-0.0185,-0.0224,-0.0225,-0.0227,0,0,0,0,0,-0.0539,-0.0547,-0.0552,-0.0552,-0.054,-0.0515,-0.0509,-0.0489,-0.0489,-0.0482,-0.0448,-0.042,-0.0318,-0.0327,-0.0311,-0.0296,-0.0186,-0.0185,-0.0185,-0.0223,-0.0225,-0.0227,0,0,0,0,0,0,-0.0544,-0.0545,-0.055,-0.0559,-0.0541,-0.0511,-0.0499,-0.0492,-0.0461,-0.0458,-0.0413,-0.0398,-0.0354,-0.032,-0.0331,-0.0258,-0.0248,-0.0244,-0.0282,-0.0284,-0.0285,-0.0301,-0.0297,0,0,0,0,0,-0.0553,-0.0564,-0.0551,-0.0558,-0.055,-0.0528,-0.0515,-0.0504,-0.0475,-0.0463,-0.0423,-0.0379,-0.0338,-0.0309,-0.0266,-0.0222,-0.02,-0.0203,-0.0205,-0.0206,-0.0209,-0.0178,-0.0177,-0.0182,-0.0182,-0.0182,0,0,-0.0556,-0.0557,-0.0563,-0.0559,-0.0543,-0.0533,-0.0521,-0.0502,-0.0492,-0.045,-0.0418,-0.0381,-0.0329,-0.0285,-0.0261,-0.0254,-0.0192,-0.0205,-0.0207,-0.0209,-0.0177,-0.0177,-0.0176,-0.0182,-0.0182,-0.0182,0,0,-0.056,-0.057,-0.0577,-0.0566,-0.0547,-0.0533,-0.0531,-0.0503,-0.0488,-0.0454,-0.0426,-0.0388,-0.0319,-0.0285,-0.0258,-0.0241,-0.0205,-0.0224,-0.0238,-0.0208,-0.0207,-0.0207,-0.0176,-0.0173,-0.0221,-0.0221,-0.0221,0,-0.0562,-0.0582,-0.057,-0.0568,-0.0564,-0.0538,-0.0539,-0.0513,-0.0473,-0.0462,-0.0447,-0.0367,-0.0319,-0.0277,-0.027,-0.0244,-0.0224,-0.0236,-0.0211,-0.021,-0.0209,-0.0178,-0.0173,-0.0223,-0.0223,-0.0223,-0.0222,0,-0.0571,-0.0584,-0.0581,-0.0583,-0.0571,-0.0565,-0.0536,-0.0519,-0.0499,-0.0476,-0.0433,-0.0375,-0.0332,-0.0306,-0.0278,-0.0245,-0.0233,-0.0222,-0.0211,-0.0211,-0.0178,-0.0172,-0.0226,-0.0225,-0.0224,-0.0224,0,0,-0.0589,-0.0592,-0.0593,-0.0606,-0.0585,-0.058,-0.0557,-0.0537,-0.0533,-0.0479,-0.0469,-0.0392,-0.037,-0.0339,-0.0299,-0.0265,-0.0231,-0.0241,-0.0238,-0.0219,-0.0165,-0.0111,-0.0099,-0.022,-0.0219,-0.0219,-0.0145,0,-0.0604,-0.0622,-0.0613,-0.0627,-0.0637,-0.0611,-0.0597,-0.0572,-0.0541,-0.0517,-0.0456,-0.0423,-0.0378,-0.0362,-0.032,-0.0256,-0.0219,-0.0252,-0.016,-0.0157,-0.0116,-0.0092,-0.007,0.0001,-0.014,-0.0139,-0.0138,0,-0.0621,-0.0636,-0.0658,-0.0674,-0.0675,-0.0671,-0.0665,-0.0648,-0.06,-0.0575,-0.0531,-0.0484,-0.042,-0.0388,-0.0278,-0.0303,-0.0238,-0.0186,-0.0182,-0.0114,-0.0093,-0.002,0.0016,0.0134,-0.013,-0.013,-0.0131,0,-0.0657,-0.0671,-0.0699,-0.0701,-0.0702,-0.0707,-0.0703,-0.0668,-0.0661,-0.0614,-0.0601,-0.0523,-0.0482,-0.0395,-0.027,-0.028,-0.0149,-0.015,-0.004,-0.0036,0.0011,0.0019,0.0165,-0.0077,-0.0077,-0.0077,-0.0078,0,-0.0688,-0.071,-0.072,-0.0736,-0.0768,-0.0749,-0.0767,-0.0748,-0.072,-0.0713,-0.0637,-0.0605,-0.0482,-0.0387,-0.0285,-0.0133,-0.0156,-0.0034,-0.0009,-0.0001,0.0005,0.0132,0.0176,-0.0075,-0.0075,-0.0076,-0.0076,0,-0.0723,-0.0729,-0.0765,-0.0781,-0.0787,-0.0809,-0.0817,-0.0825,-0.0789,-0.0777,-0.0763,-0.0662,-0.0531,-0.0394,-0.0242,-0.0145,0.0068,0.0044,0.005,0.0076,0.0279,0.0319,0.0493,0.0557,0.0167,0.0169,0.017,0,-0.0742,-0.0763,-0.0803,-0.0829,-0.0839,-0.0865,-0.0881,-0.0863,-0.0866,-0.0804,-0.0798,-0.0673,-0.0569,-0.0314,-0.0124,0.007,0.0156,0.0203,0.0195,0.031,0.0372,0.0401,0.0444,0.0239,0.0241,0.0243,0.0244,0,-0.0776,-0.079,-0.0822,-0.0877,-0.0907,-0.0942,-0.0959,-0.0974,-0.0943,-0.0909,-0.0834,-0.0744,-0.0489,-0.025,0.0013,0.0133,0.0297,0.0243,0.036,0.0448,0.049,0.0557,0.017,0.0258,0.0257,0.0256,0.0255,0.0255,-0.0795,-0.083,-0.0872,-0.0922,-0.0962,-0.1003,-0.1024,-0.1025,-0.1016,-0.0952,-0.0864,-0.0704,-0.0364,0.0015,0.0161,0.0467,0.0435,0.0548,0.0588,0.0608,0.0676,0.0329,0.0448,0.0447,0.0447,0.0447,0.0446,0,-0.0814,-0.0855,-0.091,-0.0971,-0.1018,-0.1026,-0.106,-0.1056,-0.1034,-0.0952,-0.085,-0.049,-0.0135,0.0187,0.0615,0.0791,0.0821,0.0879,0.0917,0.0944,0.0639,0.0648,0.0819,0.0819,0.0819,0.0818,0.0818,0.0818,-0.0825,-0.0881,-0.0914,-0.0995,-0.1036,-0.1075,-0.109,-0.1066,-0.1007,-0.0838,-0.065,-0.0511,-0.0039,0.0654,0.106,0.1104,0.1238,0.1242,0.1313,0.1093,0.1064,0.1037,0.1059,0.1312,0.1313,0.1599,0.1602,0.1604]}],[{"header":{"parameterUnit":"m.s-1","parameterCategory":2,"la1":30.2991,"la2":30.254,"lo1":-89.0895,"lo2":-89.0444,"dy":0.0017,"dx":0.0017,"nx":28,"ny":28,"refTime":"2026-01-03T03:00:00:Z","depth":"2","parameterNumber":2,"parameterNumberName":"U-component_of_CURRENTS"},"data":[0,0,0,0,0,0,0,0,0,0,0,0,0,0,0,0,0,0,0,0,0,0,0,0,0,0,0,0,0,0,0,0,0,0,0,0,0,0,0,0,0,0,0,0,0,0,0,0,0,0,0,0,0,0,0,0,0,0,-0.197,-0.1971,0,-0.1996,-0.1996,-0.1996,-0.1993,-0.1993,-0.1992,-0.1992,-0.2005,-0.2005,-0.2006,0,0,0,0,0,0,0,0,0,0,0,0,0,-0.1922,-0.1923,-0.197,-0.1971,-0.1971,-0.1996,-0.1996,-0.1996,-0.1993,-0.1993,-0.1992,-0.1992,-0.2005,-0.2005,-0.2006,0,0,0,0,0,0,0,0,0,0,0,0,0,-0.1944,-0.1924,-0.197,-0.1973,-0.1974,-0.1995,-0.1996,-0.1996,-0.1993,-0.1993,-0.1992,-0.1992,-0.2004,-0.2005,-0.2006,-0.2023,0,0,-0.2009,-0.201,0,0,0,0,0,0,0,0,-0.1943,-0.1946,-0.1972,-0.1973,-0.1974,-0.1991,-0.1984,-0.2005,-0.1993,-0.1985,-0.1992,-0.1991,-0.2,-0.2001,-0.2006,-0.2023,-0.2024,-0.2009,-0.201,-0.201,-0.2011,0,0,0,0,0,0,0,-0.1942,-0.1945,-0.198,-0.1973,-0.1974,-0.1974,-0.1976,-0.1988,-0.1994,-0.1986,-0.1986,-0.199,-0.2,-0.2005,-0.2007,-0.2024,-0.2009,-0.201,-0.2011,-0.2011,-0.2062,-0.2063,0,0,0,0,0,0,-0.1941,-0.1944,-0.1979,-0.198,-0.1958,-0.1975,-0.1978,-0.1985,-0.1994,-0.1996,-0.199,-0.199,-0.2004,-0.2005,-0.2007,-0.2023,-0.201,-0.2011,-0.2012,-0.2062,-0.2062,-0.2063,0,0,0,0,0,0,-0.1939,-0.1944,-0.1978,-0.1963,-0.1967,-0.1977,-0.1985,-0.1986,-0.2003,-0.1998,-0.1999,-0.2007,-0.2004,-0.2006,-0.2018,-0.2023,-0.2012,-0.2013,-0.2061,-0.2062,-0.2063,-0.2057,0,0,0,0,0,0,-0.1938,-0.1943,-0.1953,-0.1963,-0.1968,-0.2004,-0.1986,-0.1987,-0.2006,-0.2005,-0.2012,-0.2012,-0.2003,-0.2017,-0.2019,-0.2025,-0.2014,-0.206,-0.2061,-0.2062,-0.2056,-0.2058,-0.2059,0,0,0,0,0,-0.1936,-0.1952,-0.1953,-0.1958,-0.198,-0.2005,-0.2008,-0.2012,-0.2007,-0.2023,-0.2017,-0.2013,-0.2027,-0.2018,-0.2021,-0.2027,-0.2059,-0.2061,-0.2062,-0.2056,-0.2058,-0.2059,0,0,0,0,0,0,-0.1937,-0.1953,-0.1955,-0.1975,-0.1995,-0.2005,-0.2018,-0.2023,-0.2032,-0.2028,-0.2021,-0.2022,-0.2034,-0.2038,-0.2028,-0.2048,-0.2044,-0.2046,-0.2038,-0.204,-0.2041,-0.2033,-0.2014,0,0,0,0,0,-0.1942,-0.1954,-0.1974,-0.1989,-0.2001,-0.2013,-0.2025,-0.2029,-0.2036,-0.2041,-0.2041,-0.2042,-0.2044,-0.2047,-0.2052,-0.2066,-0.2058,-0.2074,-0.2075,-0.2076,-0.2073,-0.2064,-0.2064,-0.2069,-0.2069,-0.2069,0,0,-0.1943,-0.1955,-0.1961,-0.199,-0.2001,-0.2015,-0.2019,-0.2041,-0.2045,-0.2041,-0.2047,-0.205,-0.205,-0.2056,-0.2063,-0.206,-0.2072,-0.2078,-0.2079,-0.2075,-0.2066,-0.2065,-0.2065,-0.207,-0.207,-0.207,0,0,-0.1943,-0.1967,-0.1973,-0.1993,-0.2017,-0.2027,-0.2039,-0.2058,-0.2063,-0.2075,-0.2065,-0.207,-0.2082,-0.2073,-0.2071,-0.209,-0.2081,-0.21,-0.2098,-0.209,-0.2089,-0.2088,-0.2076,-0.2074,-0.2099,-0.2099,-0.2099,0,-0.1943,-0.1953,-0.1981,-0.1993,-0.2005,-0.2033,-0.2042,-0.2056,-0.2074,-0.2077,-0.2077,-0.2084,-0.2084,-0.2081,-0.2082,-0.209,-0.2085,-0.2087,-0.2089,-0.2088,-0.2087,-0.2076,-0.2074,-0.2099,-0.2099,-0.2099,-0.2099,0,-0.194,-0.1955,-0.1964,-0.1983,-0.2006,-0.2023,-0.2047,-0.2066,-0.2076,-0.2082,-0.2092,-0.2091,-0.2093,-0.2098,-0.2092,-0.209,-0.2089,-0.2091,-0.2079,-0.2086,-0.2074,-0.2072,-0.2099,-0.2099,-0.2099,-0.2099,0,0,-0.1903,-0.1952,-0.195,-0.1961,-0.2002,-0.2017,-0.2038,-0.2059,-0.2067,-0.2084,-0.2086,-0.2089,-0.2095,-0.2093,-0.2094,-0.2086,-0.2072,-0.2086,-0.2085,-0.2064,-0.2052,-0.1999,-0.1992,-0.2074,-0.2073,-0.2073,-0.2045,0,-0.1884,-0.1902,-0.1932,-0.1947,-0.196,-0.2001,-0.2017,-0.2043,-0.2064,-0.2078,-0.2084,-0.2089,-0.2092,-0.2092,-0.2086,-0.2081,-0.2067,-0.2079,-0.2058,-0.2057,-0.2,-0.1987,-0.1834,-0.1792,-0.2043,-0.2043,-0.2043,0,-0.1852,-0.1873,-0.1885,-0.1929,-0.1939,-0.1952,-0.1987,-0.2008,-0.2042,-0.2058,-0.2072,-0.2085,-0.2084,-0.2083,-0.2069,-0.2078,-0.2062,-0.2054,-0.2053,-0.2002,-0.1999,-0.1827,-0.1778,-0.2039,-0.2039,-0.2039,-0.204,0,-0.1791,-0.1831,-0.184,-0.1855,-0.1912,-0.1922,-0.195,-0.1993,-0.2012,-0.2044,-0.2061,-0.207,-0.2074,-0.2062,-0.2058,-0.2061,-0.2039,-0.2039,-0.1974,-0.197,-0.1834,-0.1818,-0.2015,-0.2015,-0.2015,-0.2015,-0.2015,0,-0.1747,-0.1749,-0.1812,-0.1816,-0.1827,-0.1883,-0.1897,-0.1932,-0.1978,-0.1991,-0.2042,-0.2048,-0.2069,-0.2068,-0.2055,-0.2008,-0.2036,-0.1964,-0.1955,-0.1829,-0.1814,-0.2027,-0.2029,-0.2014,-0.2014,-0.2014,-0.2015,0,-0.1666,-0.171,-0.1721,-0.178,-0.1797,-0.1801,-0.1863,-0.1873,-0.1935,-0.1954,-0.1964,-0.2026,-0.2022,-0.2038,-0.202,-0.1994,-0.1962,-0.1937,-0.1789,-0.1763,-0.1897,-0.19,-0.1848,-0.1846,-0.1844,-0.1842,-0.1841,0,-0.1625,-0.1623,-0.1678,-0.1683,-0.1705,-0.1732,-0.1748,-0.1828,-0.1847,-0.1928,-0.1925,-0.1957,-0.1948,-0.1925,-0.1884,-0.1841,-0.1906,-0.168,-0.1649,-0.1881,-0.1878,-0.1883,-0.1888,-0.1467,-0.1463,-0.1459,-0.1456,0,-0.1542,-0.1562,-0.1577,-0.1591,-0.1607,-0.1628,-0.1663,-0.1678,-0.1764,-0.1789,-0.1816,-0.1822,-0.1818,-0.171,-0.1679,-0.1634,-0.1676,-0.1606,-0.1873,-0.1541,-0.1521,-0.1519,-0.1536,-0.1425,-0.1428,-0.1431,-0.1432,-0.1434,-0.147,-0.146,-0.1482,-0.1483,-0.1503,-0.1506,-0.149,-0.1538,-0.1554,-0.1571,-0.1652,-0.1617,-0.162,-0.1489,-0.1416,-0.1365,-0.1481,-0.1409,-0.142,-0.1434,-0.1403,-0.1382,-0.1253,-0.1255,-0.1257,-0.1259,-0.126,0,-0.1373,-0.1374,-0.1372,-0.1375,-0.1351,-0.1398,-0.1413,-0.1382,-0.1357,-0.1394,-0.1396,-0.1277,-0.1206,-0.1219,-0.1089,-0.1066,-0.1053,-0.1017,-0.0997,-0.1029,-0.1056,-0.1006,-0.0751,-0.0749,-0.0748,-0.0747,0,0,-0.1324,-0.1287,-0.1286,-0.1218,-0.1217,-0.1157,-0.114,-0.1113,-0.1114,-0.1066,-0.1051,-0.1144,-0.1183,-0.0972,-0.0917,-0.0813,-0.0911,-0.0767,-0.1174,-0.1181,-0.1207,-0.1279,-0.1236,0,0,0,0,0]},{"header":{"parameterUnit":"m.s-1","parameterCategory":2,"la1":30.2991,"la2":30.254,"lo1":-89.0895,"lo2":-89.0444,"dy":0.0017,"dx":0.0017,"nx":28,"ny":28,"refTime":"2026-01-03T03:00:00:Z","depth":"2","parameterNumber":3,"parameterNumberName":"V-component_of_CURRENTS"},"data":[0,0,0,0,0,0,0,0,0,0,0,0,0,0,0,0,0,0,0,0,0,0,0,0,0,0,0,0,0,0,0,0,0,0,0,0,0,0,0,0,0,0,0,0,0,0,0,0,0,0,0,0,0,0,0,0,0,0,-0.0216,-0.0216,0,-0.0172,-0.0171,-0.0171,-0.0145,-0.0145,-0.0145,-0.0145,-0.0041,-0.0038,-0.0035,0,0,0,0,0,0,0,0,0,0,0,0,0,-0.0241,-0.0241,-0.0216,-0.0216,-0.0215,-0.0172,-0.0171,-0.0171,-0.0145,-0.0145,-0.0145,-0.0145,-0.0042,-0.0038,-0.0035,0,0,0,0,0,0,0,0,0,0,0,0,0,-0.0217,-0.0241,-0.0217,-0.0197,-0.0195,-0.0172,-0.0171,-0.017,-0.0145,-0.0145,-0.0145,-0.0145,-0.0043,-0.0039,-0.0035,-0.0013,0,0,-0.0022,-0.0021,0,0,0,0,0,0,0,0,-0.0218,-0.0216,-0.0201,-0.0199,-0.0196,-0.0164,-0.0141,-0.0115,-0.0146,-0.0165,-0.0145,-0.0145,-0.0076,-0.007,-0.0062,-0.0008,-0.0003,-0.0022,-0.002,-0.0018,-0.0017,0,0,0,0,0,0,0,-0.022,-0.0218,-0.0199,-0.02,-0.0197,-0.0178,-0.0174,-0.0136,-0.0121,-0.0163,-0.0161,-0.0156,-0.0075,-0.0067,-0.006,-0.0002,-0.0022,-0.0019,-0.0016,-0.0014,0.0069,0.0069,0,0,0,0,0,0,-0.0228,-0.022,-0.02,-0.0198,-0.0207,-0.0177,-0.0174,-0.0175,-0.0122,-0.0115,-0.0156,-0.0155,-0.0073,-0.0064,-0.0056,-0.0038,-0.0018,-0.0014,-0.0012,0.0069,0.0069,0.0069,0,0,0,0,0,0,-0.0228,-0.0227,-0.0202,-0.0207,-0.0202,-0.0178,-0.0178,-0.0174,-0.0171,-0.0118,-0.0109,-0.0158,-0.0073,-0.0061,-0.0031,-0.0033,-0.0012,-0.0009,0.007,0.0069,0.0069,0.0006,0,0,0,0,0,0,-0.0229,-0.0227,-0.0233,-0.0208,-0.0202,-0.0198,-0.0178,-0.0173,-0.0167,-0.0166,-0.0117,-0.0107,-0.0072,-0.0037,-0.0027,-0.0027,-0.0005,0.007,0.0069,0.0069,0.0009,0.0004,-0.0,0,0,0,0,0,-0.0231,-0.0242,-0.0234,-0.0232,-0.0211,-0.0199,-0.0195,-0.0176,-0.0168,-0.0172,-0.0139,-0.0109,-0.0032,-0.0034,-0.0022,-0.0021,0.007,0.007,0.0069,0.0011,0.0005,0.0,0,0,0,0,0,0,-0.0258,-0.0239,-0.0231,-0.0236,-0.0223,-0.0195,-0.0196,-0.0183,-0.0161,-0.0159,-0.011,-0.0098,-0.0073,-0.0038,-0.0042,0.0002,0.0024,0.0026,-0.0025,-0.003,-0.0034,-0.0038,-0.0002,0,0,0,0,0,-0.0267,-0.027,-0.0247,-0.0253,-0.0248,-0.0224,-0.0217,-0.0206,-0.0181,-0.0172,-0.0136,-0.0097,-0.0065,-0.0042,-0.0009,0.0018,0.0051,0.0027,0.0023,0.0019,0.0024,0.0063,0.0063,0.0067,0.0067,0.0067,0,0,-0.0279,-0.0269,-0.0271,-0.0259,-0.0246,-0.0244,-0.022,-0.0217,-0.0211,-0.0162,-0.0144,-0.0113,-0.0063,-0.0038,-0.0023,-0.0008,0.0033,0.0018,0.0014,0.0022,0.0063,0.0062,0.0062,0.0067,0.0067,0.0067,0,0,-0.0305,-0.0297,-0.0307,-0.0298,-0.0283,-0.0267,-0.0269,-0.0245,-0.0232,-0.0211,-0.0177,-0.0148,-0.0095,-0.0061,-0.0036,-0.0043,0.0003,-0.0033,-0.005,-0.0013,-0.0013,-0.0012,0.0018,0.0022,-0.003,-0.003,-0.003,0,-0.032,-0.0328,-0.0309,-0.0313,-0.0309,-0.0281,-0.0289,-0.027,-0.0238,-0.0224,-0.0214,-0.0143,-0.0105,-0.0067,-0.0071,-0.0052,-0.0026,-0.0037,-0.0019,-0.0018,-0.0016,0.0016,0.002,-0.0033,-0.0033,-0.0032,-0.0032,0,-0.0348,-0.0355,-0.0361,-0.0356,-0.0349,-0.0353,-0.0325,-0.0314,-0.0294,-0.0268,-0.0233,-0.0184,-0.0139,-0.0126,-0.0098,-0.0068,-0.0052,-0.0036,-0.0008,-0.0021,0.0014,0.002,-0.0037,-0.0036,-0.0035,-0.0035,0,0,-0.0381,-0.0381,-0.0383,-0.039,-0.0373,-0.0373,-0.0361,-0.034,-0.0332,-0.0293,-0.0273,-0.022,-0.0191,-0.0161,-0.0123,-0.0087,-0.0059,-0.006,-0.0056,-0.0034,0.002,0.0049,0.0059,-0.0042,-0.0041,-0.004,0.0035,0,-0.0408,-0.0433,-0.0419,-0.0439,-0.045,-0.042,-0.0412,-0.0388,-0.0357,-0.0329,-0.0271,-0.0239,-0.0204,-0.0187,-0.0146,-0.0081,-0.0044,-0.0081,0.0033,0.0037,0.0061,0.0067,0.0051,0.0118,0.0042,0.0043,0.0043,0,-0.0437,-0.045,-0.0477,-0.0484,-0.0485,-0.0488,-0.0471,-0.046,-0.0407,-0.0381,-0.0334,-0.0287,-0.0226,-0.0199,-0.0091,-0.0117,-0.0053,-0.0002,0.0002,0.0059,0.0079,0.0121,0.0133,0.0054,0.0054,0.0053,0.0052,0,-0.0472,-0.0489,-0.0514,-0.0517,-0.0516,-0.0519,-0.0514,-0.0476,-0.0467,-0.0413,-0.0397,-0.0317,-0.0278,-0.0189,-0.0079,-0.0085,0.0043,0.0048,0.0136,0.0139,0.0165,0.0168,0.0128,0.0128,0.0128,0.0127,0.0127,0,-0.0505,-0.0525,-0.0535,-0.0551,-0.0578,-0.0559,-0.0572,-0.055,-0.0517,-0.0507,-0.0428,-0.0398,-0.0274,-0.0183,-0.0086,0.0048,0.004,0.014,0.0165,0.0141,0.0142,0.012,0.0118,0.013,0.013,0.0129,0.0129,0,-0.0538,-0.0544,-0.0578,-0.0592,-0.0597,-0.0617,-0.0622,-0.0626,-0.0587,-0.057,-0.0555,-0.0456,-0.0337,-0.0203,-0.0051,0.0038,0.0163,0.0213,0.0175,0.0194,0.0232,0.0226,0.0313,0.0315,0.0316,0.0318,0.0319,0,-0.0556,-0.0577,-0.0615,-0.0641,-0.065,-0.0674,-0.0688,-0.0665,-0.0665,-0.0604,-0.0596,-0.048,-0.0388,-0.015,0.0024,0.0207,0.0206,0.03,0.029,0.0239,0.0254,0.0245,0.0238,0.0294,0.0295,0.0296,0.0296,0,-0.0589,-0.0604,-0.0634,-0.069,-0.0719,-0.075,-0.0764,-0.0777,-0.0742,-0.071,-0.0645,-0.0565,-0.0335,-0.0132,0.0111,0.0217,0.0268,0.0319,0.0287,0.0249,0.0227,0.024,0.0232,0.0302,0.0301,0.0301,0.0301,0.03,-0.061,-0.0644,-0.0686,-0.0735,-0.0774,-0.0812,-0.0832,-0.0831,-0.0822,-0.0762,-0.0688,-0.0544,-0.0347,-0.0003,0.0173,0.0341,0.0331,0.0378,0.0374,0.0369,0.0352,0.0335,0.0426,0.0426,0.0426,0.0426,0.0426,0,-0.063,-0.0671,-0.0725,-0.0786,-0.0832,-0.084,-0.0869,-0.0865,-0.0847,-0.0771,-0.0684,-0.046,-0.0221,-0.001,0.0259,0.0415,0.0399,0.0442,0.0389,0.0383,0.0378,0.0359,0.0436,0.0436,0.0436,0.0437,0,0,-0.0643,-0.0699,-0.0731,-0.0813,-0.0855,-0.0895,-0.0909,-0.0884,-0.0827,-0.0744,-0.0634,-0.0486,-0.0222,-0.0033,0.0166,0.031,0.0305,0.0326,0.0303,0.0211,0.0204,0.0328,0.0292,0,0,0,0,0]}],[{"header":{"parameterUnit":"m.s-1","parameterCategory":2,"la1":30.2991,"la2":30.254,"lo1":-89.0895,"lo2":-89.0444,"dy":0.0017,"dx":0.0017,"nx":28,"ny":28,"refTime":"2026-01-03T03:00:00:Z","depth":"4","parameterNumber":2,"parameterNumberName":"U-component_of_CURRENTS"},"data":[0,0,0,0,0,0,0,0,0,0,0,0,0,0,0,0,0,0,0,0,0,0,0,0,0,0,0,0,0,0,0,0,0,0,0,0,0,0,0,0,0,0,0,0,0,0,0,0,0,0,0,0,0,0,0,0,0,0,-0.1315,-0.1315,0,-0.1342,-0.1342,-0.1342,-0.135,-0.135,-0.1351,-0.1351,-0.1381,-0.1382,-0.1382,0,0,0,0,0,0,0,0,0,0,0,0,0,-0.128,-0.128,-0.1315,-0.1315,-0.1316,-0.1342,-0.1342,-0.1342,-0.135,-0.135,-0.1351,-0.1351,-0.1381,-0.1381,-0.1382,0,0,0,0,0,0,0,0,0,0,0,0,0,-0.1295,-0.128,-0.1315,-0.1327,-0.1328,-0.1342,-0.1342,-0.1342,-0.135,-0.135,-0.1351,-0.1351,-0.1381,-0.1381,-0.1382,-0.1379,0,0,-0.1385,-0.1385,0,0,0,0,0,0,0,0,-0.1295,-0.1296,-0.1324,-0.1326,-0.1328,-0.1347,-0.1341,-0.1356,-0.135,-0.1337,-0.1351,-0.1351,-0.1373,-0.1374,-0.1372,-0.138,-0.1381,-0.1385,-0.1385,-0.1386,-0.1386,0,0,0,0,0,0,0,-0.1293,-0.1295,-0.1321,-0.1325,-0.1327,-0.1335,-0.1337,-0.1344,-0.1348,-0.1338,-0.134,-0.135,-0.1373,-0.1371,-0.1373,-0.1382,-0.1385,-0.1385,-0.1386,-0.1386,-0.1484,-0.1486,0,0,0,0,0,0,-0.1298,-0.1294,-0.132,-0.1322,-0.1317,-0.1335,-0.1338,-0.1337,-0.1348,-0.1352,-0.135,-0.1351,-0.1369,-0.1372,-0.1374,-0.1448,-0.1386,-0.1386,-0.1387,-0.1482,-0.1484,-0.1487,0,0,0,0,0,0,-0.1297,-0.13,-0.1319,-0.1313,-0.1317,-0.1336,-0.1335,-0.1337,-0.1359,-0.1358,-0.1361,-0.1373,-0.137,-0.1373,-0.1412,-0.1446,-0.1387,-0.1387,-0.1479,-0.1483,-0.1485,-0.1546,0,0,0,0,0,0,-0.1296,-0.1299,-0.1309,-0.1313,-0.1317,-0.1348,-0.1335,-0.1338,-0.1366,-0.1367,-0.1378,-0.138,-0.137,-0.1412,-0.1413,-0.1446,-0.1388,-0.1477,-0.1481,-0.1484,-0.1541,-0.1551,-0.1559,0,0,0,0,0,-0.1294,-0.1312,-0.1309,-0.1313,-0.1327,-0.135,-0.1353,-0.1365,-0.1367,-0.1384,-0.1399,-0.1381,-0.1438,-0.1414,-0.1415,-0.1449,-0.1475,-0.148,-0.1484,-0.1537,-0.1549,-0.1559,0,0,0,0,0,0,-0.1309,-0.1315,-0.1312,-0.1332,-0.1348,-0.1354,-0.1379,-0.138,-0.1403,-0.1414,-0.1404,-0.1408,-0.1457,-0.1449,-0.1422,-0.1492,-0.1455,-0.146,-0.1495,-0.1506,-0.1515,-0.1496,-0.1389,0,0,0,0,0,-0.1315,-0.1326,-0.1334,-0.1353,-0.1367,-0.1374,-0.1389,-0.1397,-0.1414,-0.1425,-0.1437,-0.1454,-0.1473,-0.1487,-0.1503,-0.1536,-0.1511,-0.1562,-0.1571,-0.1578,-0.1566,-0.1563,-0.1569,-0.1502,-0.1502,-0.1502,0,0,-0.1328,-0.1333,-0.1341,-0.1357,-0.1372,-0.1396,-0.1385,-0.142,-0.1442,-0.1425,-0.1476,-0.1489,-0.1491,-0.1534,-0.1555,-0.1533,-0.1589,-0.1584,-0.159,-0.1574,-0.1568,-0.1574,-0.158,-0.1505,-0.1505,-0.1504,0,0,-0.1353,-0.1365,-0.138,-0.1397,-0.1426,-0.1434,-0.145,-0.1474,-0.1493,-0.1536,-0.1533,-0.1566,-0.16,-0.1604,-0.1608,-0.1675,-0.1638,-0.1692,-0.1716,-0.1714,-0.1719,-0.1722,-0.1709,-0.1711,-0.1693,-0.1693,-0.1693,0,-0.137,-0.1378,-0.1392,-0.1413,-0.1433,-0.1454,-0.1478,-0.1503,-0.1539,-0.1553,-0.1567,-0.1616,-0.1628,-0.1654,-0.1684,-0.1693,-0.168,-0.1673,-0.1723,-0.1726,-0.1728,-0.1713,-0.1714,-0.1697,-0.1696,-0.1696,-0.1696,0,-0.1391,-0.1412,-0.1432,-0.1456,-0.1484,-0.1514,-0.1547,-0.1583,-0.1613,-0.1626,-0.1677,-0.1696,-0.1714,-0.1737,-0.1732,-0.1762,-0.1744,-0.1735,-0.1688,-0.1738,-0.172,-0.172,-0.1702,-0.1701,-0.17,-0.1699,0,0,-0.1376,-0.1432,-0.1438,-0.1455,-0.1506,-0.1526,-0.1583,-0.1618,-0.1644,-0.1696,-0.172,-0.1771,-0.1775,-0.178,-0.1784,-0.179,-0.1811,-0.1775,-0.1773,-0.1747,-0.1799,-0.1688,-0.1677,-0.181,-0.181,-0.181,-0.1782,0,-0.1382,-0.1421,-0.1451,-0.1498,-0.1519,-0.1564,-0.1607,-0.165,-0.1689,-0.1726,-0.1751,-0.1784,-0.1793,-0.1807,-0.1817,-0.1811,-0.1813,-0.1819,-0.1766,-0.1763,-0.1647,-0.1674,-0.1811,-0.1781,-0.1781,-0.1781,-0.1781,0,-0.1369,-0.14,-0.1443,-0.1502,-0.1517,-0.1556,-0.1615,-0.1656,-0.1713,-0.1743,-0.1778,-0.1796,-0.1823,-0.1823,-0.1827,-0.1831,-0.1819,-0.1812,-0.181,-0.1678,-0.1652,-0.172,-0.178,-0.1781,-0.1781,-0.1781,-0.1781,0,-0.1316,-0.1384,-0.1417,-0.1439,-0.1518,-0.155,-0.1595,-0.1659,-0.1691,-0.1749,-0.1774,-0.1805,-0.1824,-0.1821,-0.1821,-0.1824,-0.1811,-0.1809,-0.1695,-0.1687,-0.1767,-0.1763,-0.1801,-0.1801,-0.1801,-0.1801,-0.1801,0,-0.1279,-0.1307,-0.14,-0.1416,-0.146,-0.1527,-0.1574,-0.1623,-0.1687,-0.171,-0.1775,-0.1786,-0.1826,-0.1828,-0.1818,-0.1749,-0.1807,-0.1689,-0.1668,-0.1797,-0.1797,-0.1767,-0.1764,-0.18,-0.18,-0.18,-0.18,0,-0.1203,-0.1266,-0.1309,-0.1403,-0.1434,-0.1465,-0.1559,-0.1584,-0.1661,-0.1692,-0.1711,-0.1775,-0.1767,-0.1788,-0.1778,-0.1729,-0.1686,-0.1649,-0.178,-0.177,-0.1564,-0.1565,-0.1504,-0.15,-0.1496,-0.1493,-0.149,0,-0.1163,-0.118,-0.1285,-0.1313,-0.1358,-0.1422,-0.1457,-0.1553,-0.1576,-0.1664,-0.1659,-0.1694,-0.1718,-0.1611,-0.1651,-0.1606,-0.1594,-0.1563,-0.1563,-0.1545,-0.1532,-0.1538,-0.1544,-0.1485,-0.1484,-0.1483,-0.1482,0,-0.1086,-0.1137,-0.1176,-0.1235,-0.1284,-0.1329,-0.1389,-0.1396,-0.1489,-0.1576,-0.1555,-0.1546,-0.1535,-0.1522,-0.1501,-0.1475,-0.1577,-0.1525,-0.1532,-0.1533,-0.1521,-0.1514,-0.1523,-0.147,-0.1471,-0.1473,-0.1473,0,-0.1031,-0.1041,-0.1101,-0.1138,-0.1196,-0.121,-0.1262,-0.1284,-0.1321,-0.1421,-0.1407,-0.1449,-0.151,-0.1453,-0.1434,-0.1396,-0.1375,-0.1332,-0.1349,-0.1363,-0.1331,-0.1297,-0.1147,0,0,0,0,0,-0.0967,-0.0968,-0.0998,-0.1037,-0.1089,-0.1121,-0.1199,-0.1253,-0.1344,-0.1287,-0.1343,-0.1324,-0.1294,-0.1324,-0.1252,-0.1371,-0.1383,-0.1284,-0.1345,-0.1401,-0.1415,-0.1391,0,0,0,0,0,0,-0.0927,-0.0952,-0.0961,-0.0939,-0.0943,-0.0989,-0.1032,-0.1101,-0.108,-0.1176,-0.1164,-0.1238,-0.1227,-0.1304,-0.1221,-0.1229,-0.1238,-0.1319,-0.1315,-0.1392,-0.1405,-0.1417,-0.1398,0,0,0,0,0]},{"header":{"parameterUnit":"m.s-1","parameterCategory":2,"la1":30.2991,"la2":30.254,"lo1":-89.0895,"lo2":-89.0444,"dy":0.0017,"dx":0.0017,"nx":28,"ny":28,"refTime":"2026-01-03T03:00:00:Z","depth":"4","parameterNumber":3,"parameterNumberName":"V-component_of_CURRENTS"},"data":[0,0,0,0,0,0,0,0,0,0,0,0,0,0,0,0,0,0,0,0,0,0,0,0,0,0,0,0,0,0,0,0,0,0,0,0,0,0,0,0,0,0,0,0,0,0,0,0,0,0,0,0,0,0,0,0,0,0,-0.0098,-0.0098,0,-0.0073,-0.0073,-0.0072,-0.0047,-0.0047,-0.0046,-0.0046,0.0028,0.003,0.0032,0,0,0,0,0,0,0,0,0,0,0,0,0,-0.0107,-0.0107,-0.0098,-0.0098,-0.0098,-0.0073,-0.0073,-0.0072,-0.0047,-0.0047,-0.0046,-0.0046,0.0028,0.003,0.0032,0,0,0,0,0,0,0,0,0,0,0,0,0,-0.0094,-0.0107,-0.0098,-0.0083,-0.0081,-0.0073,-0.0073,-0.0072,-0.0047,-0.0047,-0.0046,-0.0046,0.0027,0.003,0.0032,0.004,0,0,0.004,0.0041,0,0,0,0,0,0,0,0,-0.0094,-0.0093,-0.0085,-0.0084,-0.0082,-0.0063,-0.0048,-0.0032,-0.0047,-0.0059,-0.0046,-0.0046,0.0001,0.0006,0.001,0.0044,0.0047,0.004,0.0042,0.0043,0.0044,0,0,0,0,0,0,0,-0.0095,-0.0094,-0.0088,-0.0085,-0.0083,-0.0071,-0.0069,-0.0045,-0.003,-0.0058,-0.0057,-0.0055,0.0003,0.0008,0.0013,0.0048,0.004,0.0043,0.0044,0.0045,0.0097,0.0097,0,0,0,0,0,0,-0.0102,-0.0095,-0.0088,-0.0087,-0.0088,-0.0071,-0.0069,-0.0069,-0.0031,-0.0026,-0.0055,-0.0054,0.0003,0.0009,0.0015,0.0023,0.0043,0.0046,0.0047,0.0097,0.0097,0.0097,0,0,0,0,0,0,-0.0102,-0.0101,-0.0089,-0.0091,-0.0089,-0.0072,-0.0072,-0.0069,-0.0066,-0.003,-0.0023,-0.0056,0.0004,0.0012,0.0029,0.0026,0.0047,0.0049,0.0097,0.0097,0.0097,0.0041,0,0,0,0,0,0,-0.0102,-0.0102,-0.0105,-0.0091,-0.0089,-0.0091,-0.0073,-0.0069,-0.0066,-0.0064,-0.0028,-0.0021,0.0005,0.0025,0.0032,0.003,0.0051,0.0098,0.0097,0.0097,0.0043,0.0039,0.0035,0,0,0,0,0,-0.0103,-0.0114,-0.0106,-0.0105,-0.0094,-0.0091,-0.0089,-0.0075,-0.0066,-0.0069,-0.0047,-0.0022,0.0028,0.0027,0.0035,0.0034,0.0098,0.0097,0.0097,0.0045,0.004,0.0035,0,0,0,0,0,0,-0.0124,-0.0112,-0.0103,-0.0111,-0.0103,-0.0087,-0.0092,-0.008,-0.0065,-0.0064,-0.0027,-0.0018,-0.0005,0.0022,0.002,0.0048,0.0068,0.0069,0.0026,0.0021,0.0018,0.0017,0.0053,0,0,0,0,0,-0.0129,-0.0133,-0.0119,-0.0126,-0.0124,-0.0108,-0.0105,-0.0097,-0.0082,-0.0075,-0.005,-0.0022,-0.0,0.0015,0.0037,0.0053,0.0085,0.0059,0.0055,0.0052,0.0057,0.0097,0.0098,0.0095,0.0095,0.0095,0,0,-0.0141,-0.0135,-0.0137,-0.0131,-0.0124,-0.0128,-0.0106,-0.0109,-0.0108,-0.0069,-0.0061,-0.0037,-0.0001,0.0013,0.0023,0.0036,0.0067,0.0051,0.0048,0.0055,0.0097,0.0097,0.0098,0.0095,0.0095,0.0095,0,0,-0.0167,-0.016,-0.0171,-0.0166,-0.016,-0.0149,-0.0152,-0.0138,-0.0128,-0.012,-0.0091,-0.0069,-0.0037,-0.0009,0.0009,-0.0001,0.004,0.0005,-0.0009,0.0029,0.0029,0.003,0.0059,0.0063,0.0008,0.0008,0.0008,0,-0.0182,-0.019,-0.0175,-0.0184,-0.0183,-0.0161,-0.0173,-0.0162,-0.0143,-0.0131,-0.0125,-0.0073,-0.0046,-0.0018,-0.0023,-0.001,0.0016,0.0003,0.0023,0.0025,0.0027,0.0057,0.0062,0.0005,0.0006,0.0006,0.0006,0,-0.0212,-0.022,-0.0228,-0.0228,-0.0226,-0.0235,-0.0217,-0.021,-0.0196,-0.0176,-0.015,-0.0114,-0.0079,-0.007,-0.005,-0.0022,-0.0008,0.0008,0.0033,0.0024,0.0056,0.0062,0.0001,0.0002,0.0003,0.0004,0,0,-0.0242,-0.0249,-0.0251,-0.0258,-0.025,-0.0254,-0.0251,-0.0237,-0.023,-0.0205,-0.0187,-0.0151,-0.0124,-0.0101,-0.0069,-0.0035,-0.0007,-0.0011,-0.0008,0.0014,0.0072,0.0062,0.0068,0.0012,0.0013,0.0014,0.0085,0,-0.0269,-0.0297,-0.0289,-0.0312,-0.0323,-0.0301,-0.03,-0.0282,-0.0258,-0.0235,-0.0187,-0.0163,-0.0137,-0.0122,-0.0084,-0.0027,0.0009,-0.0028,0.0083,0.0086,0.0075,0.0075,0.0017,0.009,0.0091,0.0092,0.0093,0,-0.0297,-0.0312,-0.0342,-0.0349,-0.0352,-0.0361,-0.0349,-0.0344,-0.0301,-0.028,-0.0239,-0.0198,-0.0147,-0.0125,-0.0026,-0.0052,0.0007,0.0053,0.0057,0.0074,0.0088,0.0106,0.0105,0.0104,0.0103,0.0103,0.0102,0,-0.0321,-0.0345,-0.037,-0.0375,-0.0381,-0.0388,-0.0388,-0.0358,-0.0352,-0.0305,-0.0291,-0.022,-0.0188,-0.0105,-0.0014,-0.0017,0.0097,0.0106,0.0155,0.0155,0.0168,0.0167,0.0184,0.0184,0.0184,0.0184,0.0184,0,-0.0346,-0.0367,-0.0388,-0.0403,-0.0432,-0.0421,-0.0436,-0.042,-0.0394,-0.0385,-0.0318,-0.0292,-0.0181,-0.0103,-0.0017,0.0085,0.0098,0.0156,0.0175,0.0141,0.0136,0.0172,0.017,0.0186,0.0186,0.0185,0.0185,0,-0.0365,-0.0378,-0.0414,-0.0436,-0.0447,-0.0468,-0.0483,-0.0487,-0.0456,-0.0442,-0.043,-0.0344,-0.0246,-0.013,0.0007,0.0072,0.0176,0.0213,0.0162,0.0177,0.0209,0.0203,0.0271,0.0271,0.0271,0.0271,0.0271,0,-0.0375,-0.0396,-0.0446,-0.0474,-0.049,-0.0519,-0.0538,-0.0523,-0.0522,-0.0474,-0.0465,-0.0373,-0.0304,-0.0118,0.0001,0.0167,0.0191,0.0244,0.0232,0.0207,0.022,0.0213,0.0207,0.0272,0.0272,0.0272,0.0272,0,-0.0394,-0.0417,-0.0448,-0.0511,-0.0547,-0.058,-0.0601,-0.0606,-0.058,-0.0556,-0.0487,-0.0384,-0.0271,-0.0127,0.0005,0.0124,0.0207,0.0247,0.0247,0.0237,0.021,0.022,0.0214,0.0273,0.0273,0.0273,0.0273,0,-0.0407,-0.0439,-0.0487,-0.0537,-0.0589,-0.0623,-0.0633,-0.0622,-0.0613,-0.0552,-0.0533,-0.04,-0.0322,-0.0149,-0.0029,0.0086,0.0114,0.0149,0.0155,0.0156,0.01,0.0047,0.008,0,0,0,0,0,-0.0414,-0.0453,-0.0508,-0.0566,-0.0618,-0.0643,-0.0664,-0.0662,-0.0639,-0.0596,-0.056,-0.0451,-0.0267,-0.0185,-0.0071,-0.0031,0.0127,0.0105,0.0168,0.0277,0.0276,0.0229,0,0,0,0,0,0,-0.0421,-0.0475,-0.0507,-0.0575,-0.0617,-0.0667,-0.0681,-0.0667,-0.0632,-0.0595,-0.0496,-0.0431,-0.0252,-0.0334,-0.0072,-0.0036,0.0018,0.0196,0.0198,0.0278,0.0277,0.0276,0.0227,0,0,0,0,0]}]]